Back to catalog

STARLINK-35874

AliveCommunicationsVLEO
NORAD 66962·PAYLOAD·🇺🇸 United States

Launched Dec 8, 2025 from Cape Canaveral Space Force Station

Loading…

Next Passes (next 24 hours)

TLE

FreshSource: CelesTrak SupGP

Epoch: Sep 15, 2026, 03:17 UTC

1 66962C 25288D   26258.13729167 -.00006720  00000+0 -24336-3 0  2588
2 66962  43.0023  33.9854 0001728 268.0670 174.5803 15.27585940    17

Track STARLINK-35874 in real time with AllMySat

Download on the App Store